User: anonymous   Login
Location: Newark
(27.9675°N, 86.8869°E)
Time: 05:58:07
(UTC+00:00)
Language:

A-11 Canister half - Orbit

View from above orbital plane
View from above orbital plane
View from above satellite
View from above satellite

Ground track
Ground track

The orbit data is extracted from the following two-line orbital elements,

1    51U 60009C   19289.29251177 -.00000187  00000-0 -98997-3 0  9997
2    51  47.2156  25.8803 0108067 154.9625 205.6456 12.18276131634196
Epoch (UTC): 16 October 2019 07:01:13
Eccentricity: 0.0108067
inclination: 47.2156°
perigee height: 1514 km
apogee height: 1686 km
right ascension of ascending node: 25.8803°
argument of perigee: 154.9625°
revolutions per day: 12.18276131
mean anomaly at epoch: 205.6456°
orbit number at epoch: 63419

The dashed part of the orbit path shows where the satellite is in the earth's shadow,  

DLR